Regional Weather Roundup
Issued by NWS

Home | Current Version | Previous Version | Text Only | Print | Product List | Glossary Off
Versions: 1 2 3 4 5 6 7 8 9 10 11 12 13 14 15 16 17 18 19 20 21 22 23 24 25 26 27 28 29 30 31 32 33 34 35 36 37 38 39 40 41 42 43 44 45 46 47 48 49 50

000
ASUS45 KTFX 080410
RWRMT
MONTANA REGIONAL WEATHER ROUNDUP
NATIONAL WEATHER SERVICE GREAT FALLS MT
900 PM MST SUN FEB 07 2016

NOTE: "FAIR" INDICATES FEW OR NO CLOUDS BELOW 12000 FEET WITH NO
SIGNIFICANT WEATHER AND/OR OBSTRUCTIONS TO VISIBILITY.

MTZ001>007-043-080500-
WEST OF THE DIVIDE

CITY           SKY/WX    TMP DP  RH WIND       PRES   REMARKS
KALISPELL      CLOUDY    32  28  85 NE3       30.61S
MISSOULA       CLOUDY    35  26  69 CALM      30.62S
BUTTE          CLOUDY    28  19  69 N3        30.52S
MULLAN PASS    CLOUDY    28  16  60 W6        30.56R WCI  22
ANACONDA         N/A     28  19  69 CALM      30.54F
DEER LODGE       N/A     30  19  64 CALM      30.57R
HAMILTON         N/A     36  25  64 CALM      30.60R
LIBBY            N/A     34  28  80 CALM      30.64S
PLAINS           N/A     37  27  68 CALM      30.59R
$$

MTZ008-052>055-080500-
SOUTHWEST MONTANA

CITY           SKY/WX    TMP DP  RH WIND       PRES   REMARKS
BOZEMAN        CLOUDY    29  23  78 SE6       30.50F WCI  23
DILLON         CLOUDY    32  20  61 S8        30.51F WCI  25
ENNIS          CLOUDY    34  19  55 S16       30.56F WCI  23
TWIN BRIDGES     N/A     31  18  58 E5        30.45R
$$

MTZ009-010-012-014-046-048-049-054-080500-
EAST SLOPES AND CENTRAL MONTANA

CITY           SKY/WX    TMP DP  RH WIND       PRES   REMARKS
CUT BANK       PTCLDY    31  18  58 W9        30.40R WCI  23
GREAT FALLS    PTCLDY    34  17  50 SW9       30.41S WCI  27
MALMSTROM AFB  MOCLDY    32  18  57 SW7       30.43S WCI  25
HELENA         CLOUDY    39  20  46 W12       30.49R WCI  32
CHOTEAU          N/A     34  19  55 CALM      30.41S
CONRAD           N/A     27  17  65 CALM      30.39R
$$

MTZ011-013-016-021-045-047-050-051-080500-
NORTH CENTRAL MONTANA

CITY           SKY/WX    TMP DP  RH WIND       PRES   REMARKS
HAVRE          CLOUDY    24  16  71 CALM      30.43F
LEWISTOWN      CLOUDY    22  11  62 SE6       30.42S WCI  14
N BAR RANCH    MOCLDY    23   9  54 W3        30.43S
CHINOOK          N/A     25  14  63 CALM      30.44F
$$

MTZ017>020-022>027-061-062-080500-
NORTHEAST MONTANA

CITY           SKY/WX    TMP DP  RH WIND       PRES   REMARKS
GLASGOW        CLEAR     25  16  68 W9        30.39F WCI  15
JORDAN           N/A     26  19  74 NW12      30.41S WCI  16
SIDNEY         CLEAR     28  16  59 NW15      30.34R WCI  17
WOLF POINT     CLEAR     30  17  58 NW9       30.39R WCI  22
PLENTYWOOD       N/A     27  19  74 NW17      30.29F WCI  14
POPLAR           N/A     28  18  64 NW12      30.37S WCI  18
$$

MTZ028>42-056>058-080500-
SOUTHCENTRAL AND SOUTHEAST MONTANA

CITY           SKY/WX    TMP DP  RH WIND       PRES   REMARKS
BAKER          CLEAR     28  16  60 NW21G29   30.32R WCI  15
BILLINGS       MOCLDY    34   9  35 CALM      30.44F
LIVINGSTON     CLOUDY    37  15  40 NW13      30.46R WCI  29
MILES CITY     CLEAR     32  14  47 NW17      30.41S WCI  21
FORSYTH          N/A     28  16  59 CALM      30.45R
LAUREL           N/A     33   9  37 CALM      30.39S
ROUNDUP          N/A     30   6  36 CALM      30.31F
$$

REGIONAL REPORTS...DAKOTAS

CITY           SKY/WX    TMP DP  RH WIND       PRES   REMARKS
WILLISTON      CLEAR     29  19  66 NW18G28   30.30R WCI  16
MINOT          FLURRIES  28  16  60 NW25G37   30.16R WCI  13
DICKINSON      CLEAR     27  15  61 NW24G33   30.22R WCI  12
BEACH            N/A     27  16  63 NW17G23   30.34R WCI  14
CROSBY           N/A     25  21  86 NW16G24   30.29S WCI  12
TIOGA            N/A     25  21  86 NW23G30   30.28S WCI  10
WATFORD CITY     N/A     28  18  64 NW21G26   30.29R WCI  15
BISMARCK       MOCLDY    32  18  56 NW28G46   30.16R WCI  18
GRAND FORKS    LGT SNOW  14   9  80 N29G38    30.03R BLWGSNOWWCI  -7
FARGO          SNOW      15  10  80 N32G39    30.02R VSB 1/2 WCI  -6
BUFFALO SD       N/A     29  14  53 NW29G38   30.22S WCI  14
RAPID CITY     CLEAR     32   9  38 NW35G44   30.27R WCI  17
$$

REGIONAL REPORTS...WYOMING/IDAHO/WASHINGTON

CITY           SKY/WX    TMP DP  RH WIND       PRES   REMARKS
GILLETTE       CLEAR     26  10  50 NW18      30.38S WCI  13
SHERIDAN       CLOUDY    30  15  53 W9        30.44R WCI  22
BUFFALO WY     CLOUDY    26  12  55 N6        30.39F WCI  19
CODY           CLOUDY    30  12  47 CALM      30.42R
YELLOWSTONE LA   N/A     21  13  71 VRB3      30.54R
IDAHO FALLS    FOG       22  20  92 N9        30.65R VSB 1/2 WCI  12
SALMON         CLOUDY    14  10  85 CALM      30.67R
BOISE          CLEAR     37  33  85 CALM      30.63S
SPOKANE        CLOUDY    38  30  73 NE7       30.62S
$$

REGIONAL REPORTS...ALBERTA

CITY           SKY/WX    TMP DP  RH WIND       PRES   REMARKS
EDMONTON       MOCLDY    28  16  59 SW6       30.33F WCI  22
CALGARY        PTCLDY    30  10  43 S5        30.34S
LETHBRIDGE     PTCLDY    37  21  52 W21G29    30.36F WCI  27
MEDICINE HAT   CLEAR     23  18  80 S5        30.42S
WATERTON GATE    N/A     37  19  48 SW28G41     N/A  WCI  25
CARDSTON         N/A     39  19  45 W14G21      N/A  WCI  31
MILK RIVER       N/A     21  14  73 N2          N/A
$$

REGIONAL REPORTS...SASKATCHEWAN

CITY           SKY/WX    TMP DP  RH WIND       PRES   REMARKS
SWIFT CURRENT  CLEAR     23  16  74 W12       30.35R WCI  12
REGINA         CLEAR     23  19  86 NW13      30.28S WCI  11
SASKATOON      CLEAR     19  14  79 W9        30.32S WCI   9
CYPRESS HILLS    N/A     21   7  53 W5          N/A
VAL MARIE        N/A     19  12  73 NW6         N/A  WCI  11
ROCKGLEN         N/A     27  14  59 NW18G28     N/A  WCI  13
ASSINIBOIA       N/A     19  14  79 S5          N/A
$$



USA.gov is the U.S. government's official web portal to all federal, state and local government web resources and services.